Wind_Speed
22 22 22 22 22 22 23 23 23 23 23 22 23 24 25 24 24 24 23 23 21 20 19 17 15 12 9 9 10 9 4 2 6 7 3 2 3 3 4 5 4 2 2 3 5 5 4 5 5 7 6 5 4 4 6 5 3 3 2 3 3 4 5 5 6 4 2 2 4 5 6 5 3 5 4 3 4 3 3 4 5 5 7 11 14 10 4 3
22 22 22 23 22 22 23 23 24 24 24 23 24 24 26 26 25 25 24 23 22 20 19 17 13 9 7 7 8 7 3 4 9 5 2 1 1 3 4 5 2 3 3 7 4 4 4 4 6 7 5 3 2 3 6 4 4 4 3 3 5 4 2 5 6 4 3 4 3 1 2 3 3 4 4 3 5 5 4 4 4 5 7 9 13 14 6 3
23 23 23 23 23 23 23 23 23 24 24 24 25 26 26 26 26 25 24 23 22 20 18 14 11 8 5 7 8 4 3 6 7 2 4 1 2 3 4 4 0 4 5 7 3 3 5 4 5 8 5 3 2 3 4 3 4 5 4 4 4 1 5 6 7 6 3 5 3 2 3 1 1 3 3 3 4 5 5 3 3 4 4 3 6 10 8 6
23 24 24 24 24 24 23 23 23 23 24 25 25 26 26 26 27 26 24 22 20 18 15 12 9 6 4 7 7 1 2 5 2 5 3 2 1 2 4 4 1 2 5 5 3 3 4 6 3 5 4 3 3 3 4 4 3 3 5 5 1 2 2 6 7 7 5 4 4 2 2 2 2 2 3 2 3 5 4 3 3 4 2 1 3 7 10 9
24 24 25 25 24 24 24 24 24 24 25 25 25 26 26 26 27 26 24 22 18 15 13 11 8 5 4 8 5 1 2 3 2 5 1 3 2 2 3 3 1 1 5 3 2 2 2 4 2 3 4 3 4 3 5 7 4 1 5 6 1 1 1 7 7 6 4 3 4 2 0 1 2 2 3 3 4 3 2 4 4 4 4 3 1 4 7 7
24 25 25 25 25 25 25 25 25 25 25 25 25 25 25 26 27 26 24 21 15 12 10 9 7 3 4 7 2 2 2 1 3 2 2 4 3 4 3 2 2 3 4 4 2 1 2 3 3 3 3 3 5 5 6 7 4 1 5 6 2 2 1 6 6 4 3 2 3 2 2 1 1 3 4 6 7 2 3 6 6 5 6 6 4 2 3 5
25 25 25 26 25 26 26 26 26 25 26 26 26 26 25 27 28 26 24 19 12 9 8 7 5 3 3 4 1 2 4 0 4 1 2 1 3 5 4 3 3 4 5 5 2 3 3 3 4 3 3 4 5 7 5 5 3 3 4 5 2 4 1 2 5 3 1 2 2 1 3 3 3 3 3 6 7 5 4 5 6 6 7 7 5 5 5 5
25 26 26 26 26 27 27 27 27 27 27 26 27 27 26 28 28 25 24 16 8 7 5 4 5 4 3 2 1 3 3 2 4 1 1 1 3 5 4 4 3 5 5 4 2 2 2 4 5 3 4 3 2 3 3 4 3 6 5 3 2 2 2 1 1 2 2 2 3 3 4 5 6 4 4 8 8 6 7 5 4 5 6 6 6 6 7 6
26 26 26 27 27 28 27 27 27 28 28 28 28 27 28 30 27 26 23 11 5 5 2 2 6 5 4 1 2 3 1 4 4 3 1 1 3 4 4 4 3 4 4 2 2 3 1 3 4 2 2 2 2 1 5 3 3 5 7 2 1 2 3 3 3 4 3 3 2 4 7 6 6 4 6 11 12 10 8 7 6 4 5 6 6 7 7 8
26 27 27 28 28 28 28 28 29 29 29 30 29 28 29 30 27 25 18 6 3 4 3 1 6 6 3 2 3 3 3 6 4 3 2 3 3 2 3 3 3 4 3 1 2 3 2 2 1 3 3 1 2 1 3 3 1 1 4 3 3 5 4 4 4 4 3 3 4 5 7 6 4 3 5 8 9 9 8 9 9 8 9 8 7 8 7 8
27 28 28 29 29 30 30 30 31 32 32 33 32 29 31 30 27 23 13 4 3 4 5 2 5 6 3 3 4 1 4 4 3 3 3 3 3 2 3 3 4 4 3 1 1 3 4 5 4 2 1 1 2 1 1 1 1 2 2 4 6 7 5 6 6 5 3 2 5 6 5 6 4 4 9 8 3 1 2 6 7 7 8 8 7 7 6 7
27 28 29 29 30 30 31 33 33 34 35 36 33 30 32 29 25 18 8 3 3 4 4 4 6 6 3 3 3 1 5 3 2 3 3 3 2 2 2 3 4 4 4 2 2 4 5 5 5 3 1 2 1 3 0 2 1 2 1 3 6 6 7 9 8 5 5 3 3 3 4 6 7 9 12 8 4 1 1 5 5 5 6 6 6 6 5 6
27 28 29 30 31 31 33 34 34 36 38 37 33 31 31 27 22 12 4 3 4 4 4 5 6 4 3 2 1 2 3 3 3 4 3 2 2 2 2 1 2 3 5 3 4 4 4 4 4 3 2 2 0 2 1 1 0 2 2 3 3 5 6 8 7 5 6 2 3 4 1 2 8 12 9 1 4 5 4 5 5 5 6 6 6 6 5 6
26 28 29 30 31 32 33 34 35 37 39 36 32 32 29 24 16 7 3 3 4 4 5 6 5 3 3 1 2 1 4 4 2 3 2 2 0 1 2 2 2 3 4 5 5 3 3 3 4 3 1 1 1 0 1 1 1 2 3 3 2 3 2 4 7 7 5 0 1 4 2 3 4 8 4 2 2 5 4 5 5 6 5 5 6 5 6 6
26 28 28 30 31 33 34 34 36 39 39 36 32 31 26 18 10 4 3 1 3 7 6 5 4 4 2 1 1 2 5 3 2 2 3 3 1 2 3 3 3 4 4 5 3 3 4 4 3 1 1 2 2 1 1 2 3 2 2 3 3 4 2 4 6 7 5 1 3 4 2 3 3 5 3 1 3 4 4 5 4 4 4 4 4 4 4 4
26 27 28 29 31 32 33 34 38 40 39 35 32 29 20 12 6 3 1 1 6 6 2 2 6 6 3 1 3 3 3 3 4 3 3 4 3 2 4 3 4 4 3 4 3 2 4 4 1 1 1 2 0 1 2 3 3 3 4 3 4 5 4 4 4 5 5 4 4 4 2 2 2 4 3 3 5 5 5 5 4 4 5 5 5 4 4 3
26 27 28 29 30 32 33 34 38 39 37 34 32 24 13 7 4 3 3 3 6 1 5 1 4 6 2 2 4 3 2 4 4 3 3 3 3 2 2 3 4 4 4 4 2 0 3 2 1 0 1 1 3 3 2 3 3 4 4 4 4 4 4 4 3 3 5 5 3 4 4 3 3 4 5 5 6 6 6 5 5 5 5 5 5 5 4 3
27 28 28 29 30 31 32 34 36 37 35 34 30 19 10 7 3 6 5 4 2 3 4 3 2 4 0 2 2 2 3 4 3 2 2 1 3 1 1 1 3 3 4 2 0 1 1 0 1 1 1 2 3 4 3 2 1 1 1 3 3 2 2 1 3 4 5 4 3 4 5 6 7 6 6 7 8 8 7 7 6 5 5 6 5 5 5 4
27 27 29 30 31 31 32 34 35 34 34 34 27 12 7 8 3 5 8 7 1 1 1 1 1 2 0 2 1 3 2 2 2 1 1 1 1 1 1 1 2 1 1 1 1 2 1 1 2 1 3 5 6 7 4 1 3 2 1 1 2 3 4 2 4 5 4 3 4 6 7 7 7 6 6 6 6 7 6 6 6 5 5 5 5 5 6 6
26 28 30 31 31 31 32 34 32 29 30 33 26 10 5 8 2 2 8 9 1 1 2 1 1 3 1 1 2 3 1 2 1 1 3 1 1 2 1 1 1 0 2 2 3 1 1 1 3 4 3 4 6 4 0 4 5 2 2 1 2 3 3 1 3 4 4 0 4 4 6 7 7 6 6 6 6 6 6 6 6 5 6 6 7 7 7 7
26 29 31 31 31 31 32 34 28 24 24 26 22 9 4 6 3 2 7 6 0 2 3 1 1 2 2 2 3 3 0 2 1 2 3 2 3 2 2 2 2 2 3 2 3 2 1 2 5 4 2 5 3 3 5 5 4 3 1 3 3 3 4 4 2 4 6 2 2 3 6 8 7 7 7 6 7 8 7 7 7 7 7 6 7 8 8 7
27 29 29 30 31 31 34 31 22 19 19 21 22 11 5 5 3 2 4 5 4 3 2 1 0 1 1 1 1 2 1 2 2 3 2 2 2 2 3 3 3 3 3 3 2 2 2 4 3 1 4 6 5 4 5 3 1 1 1 3 4 4 4 4 1 3 4 2 2 4 6 10 10 9 10 9 9 10 10 10 10 9 7 7 7 7 7 6
26 27 28 29 30 33 33 23 15 17 17 18 20 11 4 5 5 4 3 4 5 4 2 2 1 1 2 1 1 1 2 1 2 4 3 2 2 2 2 3 4 3 4 4 4 3 3 3 3 4 4 5 3 4 4 2 2 3 4 3 4 4 3 3 2 3 2 1 4 5 7 10 10 9 11 11 12 12 10 10 9 8 7 7 6 6 6 7
26 26 28 28 30 34 29 15 12 16 14 13 16 12 7 6 6 4 3 4 3 1 1 1 1 1 2 1 2 2 2 1 1 4 4 3 2 1 2 3 3 3 4 7 6 4 4 2 5 4 3 2 2 4 5 4 3 5 6 5 5 6 4 3 0 1 1 2 5 4 6 8 7 7 9 8 9 10 8 8 7 7 7 6 6 6 7 7
26 25 27 28 29 34 24 8 10 18 11 8 12 12 10 7 5 3 3 3 2 0 1 2 1 2 2 2 2 1 1 2 3 2 3 3 2 0 1 1 2 2 3 5 5 5 5 1 5 4 4 3 3 4 5 5 3 4 5 4 6 6 3 2 4 3 3 3 2 2 2 5 1 5 9 3 3 6 6 7 7 7 7 6 6 7 8 9
26 26 27 27 30 34 20 4 11 18 7 6 11 13 11 8 6 3 3 2 2 0 1 2 2 2 2 3 2 1 1 1 2 1 0 1 2 2 1 0 2 0 1 2 2 3 2 2 3 2 2 3 3 4 5 6 3 3 2 2 3 5 6 4 3 2 1 2 1 5 1 6 5 7 10 5 5 7 5 6 7 6 6 7 7 8 9 9
26 26 27 26 30 30 14 4 12 13 4 5 13 14 10 8 6 4 2 2 2 1 2 1 1 2 1 2 2 1 1 2 2 1 0 2 2 3 2 1 1 1 0 1 1 1 2 3 2 2 2 3 4 4 4 5 4 2 1 3 6 7 5 3 2 1 2 3 3 2 3 5 9 9 6 6 8 8 5 7 7 5 7 7 8 8 8 8
26 26 26 27 29 22 8 6 11 8 5 11 14 12 10 8 6 4 1 2 1 1 2 1 1 1 2 2 2 1 1 2 1 0 1 2 2 2 2 3 2 1 0 1 2 1 2 2 2 2 3 4 3 3 3 3 2 1 2 5 6 5 4 3 2 1 3 3 4 5 5 3 10 6 3 6 8 6 5 7 7 8 9 8 8 8 8 8
26 26 26 29 26 14 6 5 6 7 9 13 12 10 11 8 5 2 1 2 0 2 1 1 2 1 1 3 2 1 1 1 0 1 1 2 2 1 1 2 3 2 1 2 4 4 0 2 1 0 2 4 4 4 3 3 2 3 5 5 6 4 3 2 2 2 2 3 7 10 7 4 9 7 1 3 5 4 6 8 8 9 9 8 8 8 8 7
27 26 28 28 20 11 7 3 3 10 12 11 11 11 9 6 3 0 2 2 1 2 1 2 1 2 2 1 1 1 1 1 1 1 1 1 2 1 1 0 2 2 3 4 6 8 5 2 3 1 4 3 3 3 2 3 1 4 4 3 3 1 3 3 4 3 1 4 12 16 10 6 8 7 3 4 4 4 6 6 5 7 7 7 7 6 6 6
27 27 27 23 14 10 9 4 7 14 13 10 11 9 5 3 1 0 2 1 2 1 1 2 2 3 4 2 1 1 1 1 0 2 1 0 2 2 2 1 1 1 3 4 5 8 6 3 1 2 5 4 0 1 1 1 2 3 3 3 3 3 2 2 3 4 3 7 11 12 10 9 8 8 5 6 7 7 7 7 8 8 5 3 3 3 2 2
27 27 24 17 10 7 6 7 13 16 13 10 9 5 2 1 1 2 2 1 1 1 2 2 2 3 3 2 1 1 0 1 1 2 2 1 2 3 2 2 1 1 5 3 1 4 3 5 4 3 5 6 4 3 3 2 1 1 2 3 0 3 1 1 3 4 6 8 7 5 7 7 7 11 13 13 11 10 9 8 8 8 5 4 5 5 3 1
27 24 18 12 7 5 6 10 14 15 13 9 6 3 1 1 1 3 1 1 1 1 2 1 2 2 2 3 1 1 1 2 2 1 0 1 1 3 3 3 3 2 5 3 3 5 2 3 5 4 2 5 6 4 2 3 4 5 5 5 4 3 2 4 5 4 5 7 8 8 7 4 4 9 15 17 15 14 13 12 11 9 7 7 7 6 5 3
26 19 13 9 5 4 8 11 14 15 13 8 4 1 0 1 2 1 1 2 1 1 2 2 2 1 1 1 1 1 1 1 2 2 1 1 2 2 3 3 3 3 3 2 2 3 3 4 2 3 1 1 5 5 4 2 2 5 5 5 5 5 5 5 4 4 4 5 6 8 6 4 5 5 5 7 6 6 7 8 7 6 5 5 5 5 5 4
23 16 11 7 4 6 10 12 14 15 11 6 2 1 1 2 3 1 2 1 2 2 2 2 2 2 2 2 0 3 1 1 3 3 1 1 2 2 1 1 2 1 1 2 2 2 5 5 1 4 4 3 1 2 4 4 4 4 3 5 6 6 5 4 4 4 3 4 3 3 3 4 4 3 1 2 1 0 1 3 3 4 5 4 4 5 6 5
20 14 9 4 4 8 10 13 16 13 8 4 1 3 2 0 1 2 2 2 2 3 6 6 3 2 4 2 2 2 1 1 1 2 1 1 2 2 2 4 5 4 2 1 1 1 3 3 3 5 5 5 4 4 5 2 2 2 1 3 4 4 4 4 6 6 5 6 5 4 6 5 4 7 4 4 7 4 4 5 4 6 7 7 9 10 10 10
17 13 8 3 5 10 12 15 17 12 6 2 1 3 1 2 2 2 3 3 1 1 4 4 1 2 2 1 2 1 1 0 0 1 0 0 1 1 3 4 5 6 5 3 1 1 0 2 4 3 3 4 6 5 6 4 1 1 0 2 3 2 1 2 4 4 5 8 6 7 10 7 5 6 3 4 7 6 9 10 11 13 14 12 12 12 12 13
17 13 6 1 6 13 15 16 13 8 3 1 3 4 1 3 3 3 4 4 2 2 2 3 1 2 0 1 1 1 2 1 1 1 0 2 1 3 6 3 4 6 7 5 1 2 3 2 4 2 4 3 6 5 6 5 3 3 4 2 2 1 2 2 3 4 6 8 6 7 10 7 6 5 3 5 7 9 10 11 13 15 15 13 13 14 14 14
14 9 2 3 11 16 15 11 7 4 2 1 4 3 1 2 3 4 4 4 2 2 2 3 2 1 1 2 2 1 1 1 1 2 1 1 1 5 6 4 3 5 7 6 1 2 3 2 2 2 2 5 5 2 3 4 4 3 4 3 2 3 3 3 3 2 4 7 6 8 8 4 2 2 4 7 9 11 10 10 12 13 14 13 12 13 14 13
10 5 1 8 16 16 11 7 4 2 2 2 1 0 1 1 3 4 4 4 2 1 1 3 3 2 2 4 3 2 0 1 1 2 1 2 1 3 5 5 4 5 7 5 2 2 2 3 3 1 3 4 3 1 1 2 3 3 3 3 2 1 2 2 3 1 2 3 4 6 6 2 1 2 7 11 12 11 11 10 10 11 13 13 13 14 14 14
8 2 1 11 17 14 9 5 2 1 2 1 2 1 2 2 3 5 5 5 3 1 1 3 3 3 3 3 4 3 2 1 1 2 2 2 3 1 2 3 4 4 4 2 2 3 1 3 3 3 3 3 4 3 4 3 2 3 3 2 2 3 3 2 3 3 4 3 3 5 5 2 1 2 8 12 11 11 11 11 10 11 13 13 13 14 15 15
5 1 4 12 15 13 8 3 1 1 1 1 1 0 2 3 2 4 5 5 3 2 1 1 1 2 2 2 3 3 3 2 2 2 3 2 2 2 2 2 3 3 2 1 2 3 3 1 3 5 5 5 7 8 7 6 5 3 3 2 2 3 2 2 3 2 2 4 4 5 5 3 2 5 10 11 10 11 11 10 10 11 12 12 13 14 14 14
3 4 7 11 12 11 6 2 1 1 1 1 1 1 3 4 3 3 4 4 3 1 1 1 2 2 1 1 2 3 3 1 2 3 3 1 2 4 3 3 4 4 2 2 1 3 4 2 2 4 5 5 6 8 8 7 6 4 4 3 2 2 3 2 3 3 3 4 4 4 5 4 2 4 8 11 10 10 11 11 11 10 10 12 13 13 13 13
3 5 4 6 9 8 4 1 2 1 0 3 2 3 5 4 3 3 3 3 3 2 2 2 2 1 1 2 2 1 2 2 1 2 0 2 2 4 3 4 5 3 2 1 1 1 2 0 1 1 5 5 3 4 4 4 4 3 2 3 2 5 7 5 3 3 3 5 6 6 5 3 3 6 5 11 12 10 11 11 10 9 9 11 12 12 12 13
4 3 2 2 5 5 2 1 3 3 3 5 2 3 4 2 2 3 3 4 4 0 1 1 1 1 1 1 1 0 1 2 1 2 2 1 1 3 2 3 5 3 2 1 2 1 1 2 1 1 5 6 4 3 1 2 3 2 3 6 6 7 7 5 2 4 4 5 9 8 6 5 7 12 10 10 12 10 10 10 10 9 9 10 10 11 11 12
2 1 1 1 1 2 0 1 2 2 3 5 3 2 2 1 2 4 3 3 4 2 2 4 3 2 2 1 1 1 1 3 4 2 2 3 2 2 1 2 3 1 2 4 4 0 1 3 3 4 7 7 7 6 6 7 6 6 8 10 9 8 7 4 3 5 5 6 8 8 7 8 8 11 11 10 11 9 9 10 9 9 10 10 10 10 11 11
1 0 2 2 1 1 0 2 3 3 3 3 2 2 2 3 4 4 2 1 1 2 1 4 3 1 1 2 0 2 3 3 5 6 5 4 2 0 1 2 1 4 6 5 3 0 1 3 6 6 8 9 9 9 9 9 8 8 10 13 13 11 10 7 7 8 7 7 9 9 11 11 10 12 13 9 8 7 8 9 9 9 10 10 10 11 13 13
1 0 1 2 1 1 1 2 2 3 3 4 3 3 4 5 5 3 2 3 2 2 2 1 1 2 3 4 2 2 3 3 4 7 6 3 1 1 1 1 1 5 5 2 2 2 1 4 5 5 7 9 9 9 9 8 8 8 9 12 14 15 15 13 11 10 9 9 9 11 14 13 13 14 11 7 7 7 8 8 8 9 10 11 12 13 14 14
2 2 1 2 1 3 4 3 4 5 6 6 4 4 6 7 7 7 4 2 2 1 2 1 3 3 4 4 3 4 5 4 4 4 3 1 1 1 1 2 2 3 2 2 3 2 2 3 6 6 7 9 10 10 10 9 9 9 10 12 13 15 17 17 15 13 12 12 12 13 16 16 14 11 6 7 8 7 7 8 9 11 11 12 13 13 14 14
2 2 2 2 3 4 5 5 5 6 5 5 5 4 5 6 7 7 3 1 2 2 2 3 5 6 5 5 4 6 8 6 5 4 1 0 2 1 1 2 1 1 2 2 2 3 2 4 7 5 5 7 9 9 10 10 11 11 11 12 13 14 15 16 15 14 13 13 14 14 16 14 7 5 7 9 9 8 9 10 10 11 11 12 12 12 13 14
2 3 2 3 4 4 4 3 3 5 4 4 6 5 4 4 4 5 2 4 4 3 1 1 3 2 3 4 5 7 7 4 3 3 1 0 2 1 0 1 2 1 2 2 1 3 3 3 3 3 4 7 7 7 8 9 10 10 10 11 13 12 12 11 11 12 12 13 14 14 11 6 4 7 7 8 10 10 10 10 10 9 11 11 11 11 12 13
3 3 2 2 3 3 4 3 3 4 3 2 3 3 3 4 4 6 4 2 1 1 1 1 1 1 2 5 4 2 3 3 3 3 3 2 0 1 1 2 2 2 2 2 1 1 2 1 2 2 5 7 5 3 4 5 7 7 6 8 12 12 12 13 12 12 11 9 10 8 3 3 7 8 8 8 10 10 9 9 8 9 10 11 11 11 12 12
Wind_Direction
359 357 356 356 355 354 352 351 350 350 348 347 345 343 341 339 338 338 340 339 337 334 332 330 325 326 332 330 334 338 324 290 292 264 241 42 21 344 339 340 332 123 93 333 283 260 228 214 198 190 203 193 198 174 166 199 197 186 209 212 226 225 211 184 170 164 147 116 128 155 175 190 197 171 153 129 154 205 254 283 266 274 280 286 302 305 335 7
357 356 356 355 355 354 352 350 350 348 347 346 344 342 340 337 338 339 340 340 337 334 333 330 325 328 339 336 340 342 329 307 282 252 99 21 336 354 331 335 344 120 18 335 293 239 233 209 181 188 198 176 217 156 152 180 183 204 222 205 231 237 174 157 146 124 151 138 118 134 173 201 189 162 159 189 198 187 222 256 261 277 275 277 293 294 311 18
356 356 355 355 354 352 351 350 350 348 346 345 342 341 339 337 339 339 340 341 337 334 333 332 329 330 343 346 342 344 344 310 266 176 88 283 355 347 309 329 39 106 350 325 325 292 298 293 194 190 207 198 207 155 169 177 180 221 230 230 238 167 85 104 113 96 122 127 108 49 22 295 66 97 162 210 217 192 208 216 218 257 277 305 314 310 335 350
356 355 354 354 352 351 350 350 349 347 345 344 342 339 337 337 339 339 339 340 335 332 332 331 332 328 343 354 343 329 321 299 230 99 90 232 24 323 299 329 181 94 339 314 310 297 300 301 233 205 229 213 197 181 194 180 174 213 219 236 222 122 105 102 109 105 107 102 105 84 11 311 18 16 208 216 237 214 205 183 181 195 183 62 336 319 334 334
355 354 353 351 351 351 350 349 348 346 345 343 341 338 335 335 338 338 337 338 332 326 328 331 334 318 340 351 341 158 282 283 109 88 138 248 311 329 313 321 232 56 341 312 269 260 260 271 252 246 256 217 181 177 218 196 175 280 236 240 131 87 155 115 110 105 109 109 114 113 47 279 352 300 248 237 236 224 154 157 162 163 156 145 177 304 320 318
354 353 352 351 350 350 349 348 346 345 344 342 340 338 334 334 338 336 335 336 325 317 323 333 338 303 340 358 12 149 263 276 83 79 241 263 311 352 345 354 27 16 331 296 257 204 225 233 208 215 242 232 187 193 221 189 165 272 245 242 160 80 115 121 110 108 122 138 144 146 124 101 314 272 263 248 242 239 139 159 163 165 162 155 161 215 272 281
354 352 352 351 349 348 347 345 344 343 342 340 338 336 333 335 337 335 334 332 314 307 317 337 350 305 332 13 91 206 253 121 73 288 252 272 337 352 2 25 357 328 305 277 227 191 202 202 203 208 231 242 201 201 201 138 153 246 263 263 157 100 229 110 93 124 190 215 205 153 135 170 219 248 271 251 256 264 225 190 173 166 158 156 170 190 209 247
353 352 352 350 348 347 345 344 342 341 339 338 337 334 333 336 337 334 333 326 297 296 305 339 353 334 338 9 224 249 233 94 60 360 322 42 3 3 17 17 326 303 297 277 271 251 214 200 210 226 233 234 231 204 144 117 187 226 253 277 102 102 261 293 106 201 232 234 241 241 226 215 209 226 269 248 253 259 255 256 209 165 159 169 193 204 202 220
351 351 350 349 347 346 345 343 341 339 338 337 336 333 335 339 337 334 330 317 270 280 271 356 349 340 338 316 268 266 175 80 45 5 5 47 24 17 10 357 318 297 293 288 297 276 249 213 215 281 283 265 288 204 138 178 212 212 235 255 119 240 245 237 227 227 230 228 234 240 243 241 211 216 257 244 241 244 247 265 263 234 211 206 209 213 213 215
350 350 349 347 346 345 344 343 340 339 336 335 334 334 338 341 337 333 327 302 235 248 228 8 348 333 314 261 249 254 98 77 38 355 3 38 26 4 352 355 336 305 288 302 278 270 303 318 347 5 350 293 257 58 133 203 359 263 262 309 283 262 255 230 228 227 232 240 229 238 252 255 223 206 242 233 226 232 230 241 248 248 249 241 230 223 220 225
349 349 348 347 346 345 343 342 340 338 336 335 334 336 340 341 337 332 319 274 209 223 227 251 327 334 318 256 243 235 78 68 25 6 4 17 15 3 8 360 337 314 303 290 359 355 348 349 349 340 357 316 197 127 132 165 32 336 311 313 270 249 245 230 229 220 203 231 220 224 257 258 244 234 242 234 203 172 217 239 234 230 246 248 242 231 219 226
348 348 347 347 346 345 343 341 340 338 336 334 335 338 341 340 337 328 302 247 228 236 239 262 316 346 329 260 240 73 60 55 52 50 33 35 35 14 13 354 338 331 320 289 100 31 352 358 343 290 329 326 172 151 157 68 11 308 306 286 275 257 241 218 213 200 183 189 173 173 269 250 214 227 243 239 218 201 235 260 256 249 259 265 267 257 237 227
348 348 347 346 345 345 343 341 340 338 335 333 336 339 340 339 335 324 272 238 258 270 274 281 312 333 289 256 109 80 80 81 77 71 52 45 46 21 21 9 8 4 343 356 86 48 351 357 333 302 350 320 239 125 321 43 355 284 236 242 288 281 252 203 179 153 166 173 134 143 289 246 197 218 240 245 188 190 214 250 257 259 260 255 255 253 252 244
348 347 347 346 345 344 343 341 340 337 335 334 337 340 339 337 333 317 263 236 246 286 294 280 284 272 257 124 73 146 129 107 76 66 25 346 359 94 83 66 65 58 30 48 72 41 359 340 313 299 12 338 328 76 225 181 188 258 238 210 231 257 257 139 133 137 153 199 152 156 241 264 185 196 198 71 142 169 199 231 230 238 242 237 234 229 241 244
348 347 347 346 345 344 343 342 340 337 336 337 339 340 339 335 332 307 294 171 262 297 299 275 229 217 237 115 80 152 136 109 84 49 1 346 320 139 97 94 98 79 60 59 55 27 360 323 300 263 91 54 337 288 227 208 194 221 233 203 202 216 187 121 140 161 162 220 213 171 229 267 142 155 170 123 173 177 208 223 220 244 261 266 262 246 249 260
348 348 347 346 345 344 343 342 341 338 338 341 340 340 341 335 327 315 344 38 309 293 227 205 199 215 272 107 121 143 139 81 81 49 6 347 344 93 103 120 114 88 89 68 47 32 355 323 314 317 3 53 141 233 254 240 201 197 215 224 216 201 167 141 177 189 142 129 201 208 254 305 118 164 200 198 187 188 214 234 246 268 283 285 285 277 269 281
348 347 346 346 346 344 343 342 340 339 342 345 342 342 350 341 334 51 59 348 337 106 170 241 197 207 291 103 135 145 107 66 76 36 12 347 359 102 132 143 126 103 117 93 53 21 356 340 97 326 261 222 214 194 225 242 219 196 203 237 244 213 179 154 181 188 147 152 200 221 221 260 257 206 204 208 198 192 208 235 253 265 273 271 275 276 266 252
346 346 346 346 346 344 344 342 340 343 347 349 347 347 357 358 46 80 32 332 333 130 198 294 215 204 349 111 134 95 76 67 90 44 12 345 17 32 349 91 138 131 135 119 38 169 27 278 146 313 225 207 226 204 201 214 221 98 154 243 288 322 259 141 126 161 180 194 203 218 225 241 248 239 227 215 203 203 213 224 227 235 250 261 274 278 277 266
346 347 346 345 345 344 344 343 343 347 352 354 355 0 18 15 76 105 24 360 277 173 260 338 273 266 355 154 112 63 64 77 107 81 74 106 24 338 354 64 150 136 166 153 141 176 176 153 143 254 227 200 206 209 211 88 51 23 53 325 334 329 305 44 116 160 175 210 224 235 249 253 251 251 250 239 224 223 236 240 225 216 222 241 257 261 265 264
347 347 344 343 343 342 343 343 345 351 355 357 1 13 35 12 16 137 10 1 30 69 350 353 301 288 256 162 60 37 78 124 180 148 116 148 287 254 193 189 155 80 261 177 140 193 195 180 208 231 218 176 187 203 278 50 56 27 18 352 263 258 284 342 138 138 103 152 248 251 265 269 271 270 264 266 266 258 258 263 251 226 214 218 230 238 246 248
347 344 343 342 342 341 342 342 348 355 357 7 20 40 53 14 356 335 341 328 71 74 358 2 334 281 293 358 24 4 358 154 214 137 130 213 275 269 176 179 189 186 231 187 104 57 74 225 230 223 97 89 90 48 37 43 56 48 352 314 292 259 254 250 200 112 96 119 257 302 296 277 267 269 269 264 265 261 249 248 246 234 224 219 222 230 238 244
344 343 343 342 342 341 340 343 353 359 1 23 41 63 77 28 353 317 316 292 289 314 308 96 173 213 116 22 356 344 257 185 190 152 146 216 246 254 153 162 226 181 172 172 116 109 201 227 223 114 85 79 71 67 66 57 66 124 225 285 284 263 253 259 325 68 85 110 265 304 295 277 268 263 260 253 251 251 240 236 237 235 232 229 226 227 233 242
345 345 344 343 343 339 340 349 1 1 8 35 48 57 42 4 336 308 285 279 288 275 218 164 256 168 114 126 149 172 206 192 176 158 152 197 209 244 187 202 233 173 142 193 195 185 210 200 135 86 87 93 99 117 116 140 208 204 206 227 253 267 270 266 333 31 66 159 255 293 297 280 275 265 255 247 244 247 246 242 239 234 231 231 234 234 230 231
347 347 344 344 343 339 341 356 7 360 8 40 49 39 8 345 336 319 273 267 273 247 131 109 359 49 75 91 130 192 225 42 75 135 151 209 209 204 237 243 244 218 191 207 216 238 269 219 131 115 116 136 158 148 154 187 222 219 206 210 233 242 237 225 48 45 359 256 241 269 296 274 257 251 256 248 240 250 254 248 244 238 231 228 239 247 241 236
347 347 345 344 341 339 343 8 8 355 359 43 39 17 359 346 335 307 279 276 248 245 77 166 186 101 86 113 138 279 305 66 41 86 156 240 276 131 252 290 246 234 187 184 207 245 270 248 127 143 179 190 185 177 188 200 229 234 215 222 223 211 184 86 46 35 5 314 240 119 316 281 242 244 263 282 249 242 237 235 231 226 228 221 224 235 239 241
346 345 344 343 340 341 349 27 353 345 358 58 17 357 354 349 335 300 285 285 229 199 105 182 192 156 119 127 161 302 312 126 41 32 156 322 298 259 306 319 192 207 81 157 214 241 224 139 96 118 202 211 207 217 220 207 219 249 247 357 79 111 99 87 60 44 24 295 326 90 70 282 298 269 258 271 271 252 241 247 232 209 215 216 213 218 226 236
343 342 343 342 340 342 351 355 341 349 24 6 348 346 347 346 332 302 278 274 234 169 138 153 195 198 139 106 178 293 337 153 111 109 39 19 311 251 247 256 164 109 331 224 275 285 151 136 99 129 188 215 216 235 233 197 197 240 266 41 69 91 98 112 129 190 242 302 320 119 159 268 284 272 228 210 249 265 256 253 248 225 218 217 218 214 211 222
341 342 341 340 339 340 337 319 337 11 12 329 334 340 338 338 320 294 280 297 267 145 117 104 87 164 138 133 212 238 136 166 160 84 344 335 304 254 235 277 326 51 27 234 234 273 103 137 190 189 205 218 224 259 272 235 210 162 89 67 72 81 80 80 110 234 275 313 294 241 188 228 269 275 116 184 235 268 259 246 245 244 241 236 233 226 215 214
340 340 339 337 338 338 323 310 336 1 343 329 333 335 332 325 302 282 258 280 166 91 34 109 116 91 162 188 209 197 144 149 255 111 268 258 232 236 243 298 334 334 305 257 236 254 260 142 147 93 234 238 265 293 322 312 247 136 94 77 82 86 95 134 186 214 259 262 255 242 202 205 268 279 313 224 230 226 239 241 232 234 240 242 241 238 228 215
338 338 337 336 340 346 337 327 9 350 336 330 331 330 324 305 284 301 242 254 93 65 9 114 106 346 331 243 169 136 132 85 31 126 218 248 169 203 267 266 341 300 253 242 240 248 246 161 102 158 232 244 307 328 12 357 355 106 85 72 74 136 194 202 193 175 194 241 245 242 216 200 263 273 230 231 240 215 236 256 255 247 235 231 235 230 218 208
336 335 337 337 340 350 343 331 351 345 337 328 327 326 315 277 237 224 237 174 89 18 15 77 23 6 21 25 62 61 88 116 132 174 209 303 160 205 254 209 22 319 241 235 238 245 237 207 118 209 220 217 306 293 255 341 26 61 80 72 356 297 231 210 194 171 203 241 244 239 213 201 239 265 244 239 254 249 253 262 264 266 251 237 258 236 212 201
335 334 337 336 335 354 351 328 334 338 338 332 322 316 308 277 214 237 246 91 72 6 48 55 16 32 32 4 222 185 48 190 172 184 191 155 191 215 232 221 65 339 268 257 297 293 237 200 204 194 194 196 200 231 224 191 175 204 162 128 196 280 288 244 212 193 216 240 248 218 195 201 227 251 251 248 253 255 260 266 271 285 307 330 318 299 289 269
334 337 338 334 338 359 348 330 333 340 344 337 311 286 317 324 245 219 245 7 331 14 53 29 6 45 16 337 261 186 225 196 129 127 149 110 223 244 246 231 135 170 272 309 340 314 297 201 197 180 185 191 190 206 212 188 187 194 185 164 178 197 234 233 224 234 234 244 250 218 205 224 222 238 248 247 249 253 258 265 272 282 291 286 282 287 289 271
337 345 337 330 343 342 335 335 340 346 342 326 301 285 129 234 244 218 45 18 304 275 78 44 355 356 27 303 302 346 244 208 68 45 22 38 279 276 248 227 153 162 255 310 303 258 252 275 215 144 9 205 190 219 246 270 238 207 189 184 193 192 210 222 217 227 234 256 251 208 196 231 219 215 226 220 223 239 255 266 270 275 285 281 270 277 283 269
339 345 329 327 334 317 334 342 342 344 331 312 298 254 221 228 250 359 34 359 326 340 4 343 287 283 255 203 358 346 237 190 50 45 353 265 260 290 297 345 5 18 197 216 265 216 220 255 346 67 26 33 85 288 304 319 286 249 192 186 216 222 226 259 268 245 254 299 286 193 197 222 227 251 228 110 83 144 289 297 295 295 293 308 336 336 330 329
336 336 325 328 328 321 337 343 343 343 322 306 293 238 230 252 321 39 33 338 338 347 326 299 236 229 260 196 91 352 235 187 47 54 311 255 237 276 50 44 18 29 63 199 304 354 220 230 28 31 17 36 44 357 345 341 278 297 181 203 255 252 224 255 275 270 269 269 253 231 248 253 273 282 277 296 298 304 342 349 11 9 1 9 16 14 6 4
332 329 323 319 333 332 330 330 337 338 313 283 242 249 158 78 18 27 21 357 307 298 327 310 167 138 270 248 109 73 99 116 129 132 192 319 237 167 99 57 35 48 28 354 345 20 275 264 323 331 307 1 21 345 318 292 223 91 249 304 350 339 218 228 257 252 240 249 242 230 248 255 259 265 268 309 316 360 25 27 38 35 30 28 21 16 14 9
322 318 309 320 345 334 325 322 325 321 299 214 241 257 98 71 34 37 24 7 293 281 316 271 207 119 199 346 60 74 59 68 94 96 241 281 314 69 72 34 42 50 10 355 353 45 54 281 291 291 256 318 22 356 309 294 249 204 235 310 35 248 263 228 227 235 232 246 247 230 242 244 238 262 322 355 7 32 37 35 38 35 31 26 17 12 10 10
324 315 286 38 351 333 330 327 313 288 258 221 247 262 38 31 42 55 23 4 333 300 295 264 293 54 68 34 39 359 359 78 31 6 331 262 268 68 49 5 51 48 6 9 15 12 49 256 275 44 324 337 16 345 280 303 297 259 254 264 189 215 266 254 242 271 249 251 254 240 237 215 205 301 32 51 44 41 39 36 35 34 31 23 17 13 7 10
333 312 164 14 346 333 335 325 293 254 227 215 231 285 38 2 18 33 20 13 6 283 300 337 342 339 358 17 3 327 100 116 343 313 324 351 342 80 48 4 24 21 354 4 19 11 19 259 256 354 334 332 329 250 100 12 324 322 301 276 251 287 328 292 262 242 239 261 260 248 240 173 126 356 55 63 57 49 42 36 32 31 31 24 21 19 11 11
326 288 77 3 346 340 341 308 250 193 247 215 77 53 19 7 352 353 3 17 9 264 298 347 326 306 323 340 334 340 341 292 288 267 263 338 345 72 81 14 5 359 342 349 23 24 360 285 288 284 282 274 264 291 34 30 355 353 331 311 330 339 340 308 262 214 217 245 246 250 248 186 160 30 58 60 58 54 44 39 34 25 25 25 23 22 16 13
311 300 351 348 345 352 351 290 186 71 306 349 54 96 3 360 343 351 3 13 2 299 316 357 331 318 312 306 325 355 342 292 257 261 255 276 13 60 92 30 3 5 22 88 68 64 85 35 307 274 269 276 288 311 332 335 338 323 286 281 305 306 303 271 260 256 268 272 270 266 251 212 147 78 69 62 56 54 47 44 40 22 17 22 20 20 18 14
314 315 320 332 345 355 342 261 131 78 144 32 345 304 355 351 336 353 2 360 350 342 341 342 358 360 350 24 12 8 7 348 224 234 255 305 47 96 108 54 28 10 21 57 58 73 81 56 296 278 289 292 296 304 303 309 317 294 275 287 308 347 348 287 265 295 305 283 287 278 244 214 136 91 82 71 57 54 50 44 43 29 15 14 14 18 17 11
310 289 287 326 352 359 334 304 14 330 65 60 19 339 345 334 323 333 329 324 335 42 42 334 342 33 69 75 59 350 344 2 189 183 239 360 74 122 118 70 56 29 27 64 274 32 58 62 143 312 302 290 277 276 277 295 309 315 333 323 354 27 5 341 316 299 268 239 247 258 250 241 312 316 12 61 56 50 49 43 42 38 22 12 9 12 14 10
305 270 216 303 353 359 340 37 10 321 359 31 12 323 316 300 339 359 343 313 301 231 91 294 231 202 300 3 45 335 298 296 233 145 87 17 109 108 84 78 81 80 105 145 260 202 186 246 169 299 283 279 271 255 305 350 315 314 324 305 318 346 338 335 329 281 265 244 243 247 257 266 290 303 326 40 50 42 43 40 38 37 28 19 11 7 11 13
323 321 293 274 41 24 34 96 26 333 15 18 350 342 344 286 326 356 359 313 285 270 273 272 268 292 302 299 317 295 266 270 265 259 294 276 245 87 78 107 88 69 269 298 303 303 144 257 244 231 247 263 268 273 309 323 299 290 300 298 300 304 298 303 286 264 280 288 266 266 296 299 296 304 324 19 40 34 36 37 32 27 19 18 14 7 9 13
306 278 339 346 20 359 131 85 36 14 31 13 334 351 350 293 290 321 347 263 285 25 330 267 251 244 199 151 207 271 251 249 259 266 275 275 269 21 185 138 91 284 282 296 293 171 130 250 244 239 246 259 269 278 296 300 286 288 298 296 293 291 283 272 258 258 276 288 276 281 299 300 299 309 323 4 32 32 39 38 33 26 17 13 11 7 8 8
334 282 23 22 325 303 3 61 37 352 325 307 285 272 279 275 273 282 271 240 224 115 95 263 243 215 211 193 195 266 272 258 245 244 245 246 268 302 266 153 198 261 277 282 229 194 180 247 254 256 260 265 270 274 277 276 274 274 276 280 284 286 284 274 262 255 256 261 270 284 290 287 290 301 319 10 28 30 40 40 38 33 21 15 11 7 7 3
338 301 20 56 339 307 318 312 298 288 273 272 270 248 249 255 253 255 259 257 246 160 121 189 251 246 239 229 233 264 267 267 257 233 213 225 292 317 326 302 254 231 213 208 235 214 148 241 251 246 256 264 263 265 266 264 266 262 256 258 263 269 275 277 276 272 262 260 266 274 276 275 281 294 338 31 24 27 36 31 35 32 21 18 14 8 6 0
342 329 12 354 294 280 277 265 268 271 258 256 262 244 242 254 259 270 276 151 237 256 146 188 246 259 270 278 278 266 259 262 272 263 201 196 273 278 286 289 277 191 182 183 243 254 217 244 256 257 271 266 257 260 262 259 261 260 255 254 254 256 260 265 273 278 276 272 269 266 265 267 289 360 39 40 26 27 27 19 23 24 18 19 15 9 6 358
332 313 309 294 290 286 275 249 249 274 273 264 263 263 276 276 287 314 306 179 209 254 192 279 294 300 300 283 269 270 276 288 303 305 331 252 261 290 312 155 114 128 234 217 243 268 251 250 269 276 270 263 259 260 264 269 273 270 263 262 262 262 261 262 266 269 271 276 279 277 273 276 6 24 28 31 28 29 27 19 15 13 12 15 13 8 5 357
330 293 264 263 281 288 286 281 273 275 276 282 279 279 283 286 322 335 311 211 133 24 124 209 284 280 283 275 267 301 2 50 60 35 36 55 262 263 239 234 220 207 238 254 266 264 252 259 276 256 256 267 270 280 299 302 283 267 259 257 260 261 263 265 265 267 274 282 283 282 303 5 9 11 10 11 13 14 19 23 17 10 8 9 7 4 1 356
Height
816 814 812 810 808 806 804 802 801 799 797 796 794 791 789 788 786 784 782 780 779 778 777 775 773 772 771 770 769 769 768 768 768 767 767 767 768 768 768 768 767 767 767 767 767 767 766 766 766 766 766 766 766 766 768 768 767 772 777 782 783 778 775 771 771 772 771 772 774 774 772 774 777 775 774 775 778 780 780 779 776 775 772 770 769 768 768 768
816 814 812 810 808 807 805 802 801 799 797 795 793 791 789 786 784 783 781 779 778 776 775 774 773 772 771 770 769 769 768 768 767 766 767 768 768 768 768 767 767 767 767 767 766 766 765 764 764 765 766 766 765 765 768 766 767 772 774 777 775 768 763 760 764 766 767 772 774 772 771 772 773 773 774 777 779 779 781 780 777 776 773 771 769 768 768 767
816 814 812 810 808 807 805 803 801 799 797 795 793 791 788 786 783 781 780 778 776 775 774 773 772 771 770 770 769 768 768 768 767 766 767 768 768 768 767 767 767 767 767 767 766 766 765 764 764 764 765 766 765 766 769 767 768 769 770 773 768 759 759 760 763 766 767 769 772 773 772 771 770 770 774 776 776 777 779 777 776 777 774 772 770 768 768 768
816 814 812 810 808 806 804 803 801 799 797 795 792 790 788 785 783 780 779 777 775 774 773 772 771 771 770 770 769 768 769 768 767 766 767 767 767 767 767 767 766 767 767 767 767 766 766 764 764 764 765 766 764 766 769 768 767 766 767 768 762 758 762 763 763 767 768 768 771 773 773 773 771 771 773 774 777 776 774 773 773 773 773 772 771 769 769 769
816 814 812 810 808 806 804 802 800 799 797 795 792 790 787 785 782 780 777 776 774 773 772 772 771 770 770 770 769 769 769 768 766 766 767 767 767 767 767 767 767 766 766 767 767 766 766 765 765 765 766 766 765 768 768 763 763 766 764 760 759 759 762 764 764 766 768 768 771 773 774 774 772 772 771 772 777 774 769 770 770 770 771 771 771 770 770 769
816 814 812 810 808 805 803 802 800 798 796 794 792 790 787 785 782 779 777 775 773 772 772 771 771 770 770 770 769 769 769 767 766 766 767 767 767 767 767 766 766 766 766 767 766 766 766 765 766 768 767 765 764 767 764 759 763 769 764 756 757 760 762 763 764 767 768 769 771 771 772 773 774 774 770 770 772 768 766 767 767 767 768 768 770 771 770 770
816 814 812 810 807 805 803 801 799 797 795 793 791 789 786 784 781 778 776 774 772 772 771 771 771 770 770 770 769 770 769 766 766 767 766 767 767 766 766 766 766 767 766 766 765 765 765 766 767 767 766 764 763 762 760 760 765 770 766 758 757 761 762 762 764 767 767 769 769 768 770 773 776 775 771 770 768 765 764 764 764 765 766 768 769 769 770 769
815 813 811 809 807 805 803 800 798 796 794 792 790 787 785 782 780 777 775 773 772 771 771 771 770 770 770 769 769 769 767 767 767 767 766 767 767 766 766 766 767 767 766 766 765 764 764 765 765 764 765 763 760 760 760 764 768 770 768 760 759 763 763 762 765 767 767 768 767 768 771 772 773 774 772 770 766 763 763 762 763 764 765 767 767 768 768 768
815 813 811 809 806 804 802 799 797 795 793 791 789 786 783 780 778 776 773 772 771 770 770 770 770 769 769 769 769 767 766 767 768 767 767 767 766 767 767 766 767 767 766 766 765 765 764 764 763 762 765 763 760 760 762 767 769 767 765 761 762 764 763 763 764 766 767 767 767 769 771 770 769 771 771 766 763 762 761 762 762 763 765 765 765 765 765 766
815 812 810 808 805 803 801 798 796 793 791 788 786 784 781 778 776 773 772 771 770 770 770 770 770 769 769 769 769 767 766 767 768 768 767 767 767 766 767 767 767 766 766 766 765 765 764 764 763 763 765 763 761 762 763 766 767 764 763 763 764 764 762 763 764 765 766 766 767 770 771 769 767 771 770 761 759 760 761 763 762 763 764 763 763 763 763 763
814 812 810 807 804 802 799 797 794 791 788 786 783 781 779 776 774 771 770 770 770 769 769 770 769 769 769 769 768 766 766 768 768 768 767 767 767 767 767 767 767 767 766 765 766 766 765 765 764 764 765 763 762 764 764 765 765 764 765 767 765 764 763 763 764 764 766 767 765 768 771 770 769 770 765 758 757 758 760 761 761 762 762 761 761 760 760 760
814 812 809 806 804 801 798 795 792 789 786 782 780 778 776 774 772 770 769 769 769 769 769 769 769 769 769 768 767 766 767 768 768 768 768 768 768 767 767 767 767 767 766 765 766 767 767 766 765 766 766 764 763 765 765 764 765 765 767 770 766 762 762 761 763 764 766 768 763 767 772 769 770 767 759 757 758 758 760 760 760 761 761 760 760 759 759 758
815 812 809 806 803 800 797 794 790 787 783 780 777 775 773 771 769 768 768 768 768 768 768 768 768 769 769 768 767 767 768 768 768 768 768 768 768 768 767 767 767 767 767 766 766 767 767 767 767 766 765 765 764 765 766 764 766 767 767 770 769 766 761 755 759 764 765 767 763 768 772 763 762 762 757 757 757 759 761 761 761 761 760 760 759 758 757 756
815 812 809 806 803 800 796 793 790 786 781 778 775 773 770 769 768 767 767 767 767 767 767 767 768 769 769 767 767 768 768 768 769 769 769 768 768 768 768 767 767 767 767 766 767 767 767 767 767 766 765 767 766 765 767 766 768 769 768 770 772 770 763 755 758 765 767 767 764 769 773 762 757 759 758 758 758 760 762 761 760 759 758 757 756 756 756 755
815 812 810 806 803 800 796 793 789 785 780 776 773 771 768 767 766 766 766 766 767 766 766 766 767 768 767 767 769 768 768 768 769 769 769 769 768 768 768 768 768 767 767 767 767 767 768 767 767 767 767 767 768 768 768 768 768 769 769 770 769 768 765 760 760 762 765 767 765 769 771 763 758 758 758 759 760 760 761 759 758 757 756 756 755 754 754 754
815 813 810 807 803 800 796 793 789 785 780 775 771 769 767 766 765 765 765 766 766 765 765 766 766 767 765 766 768 768 768 768 769 770 770 769 769 768 769 769 768 768 768 768 768 768 768 767 768 768 768 768 770 771 771 769 768 769 769 766 762 762 764 765 762 758 761 766 767 769 768 763 760 760 758 758 760 760 761 759 757 757 756 756 755 754 754 754
815 813 810 807 804 800 797 793 789 784 779 775 770 766 765 765 764 765 765 766 765 765 765 765 765 767 767 767 768 768 768 768 769 770 770 770 770 769 769 768 768 769 768 768 768 768 768 768 770 769 769 770 769 770 773 771 766 765 767 763 754 752 756 763 765 760 760 764 767 769 769 765 761 759 759 758 758 759 759 759 758 758 757 756 756 754 754 754
815 813 810 807 804 801 797 794 789 784 779 775 769 766 765 764 764 765 765 766 765 765 765 765 765 765 766 769 769 768 768 769 769 770 771 771 770 770 769 769 769 769 768 770 769 769 771 769 770 771 770 772 770 769 770 766 761 761 764 763 757 753 751 756 764 763 761 763 765 766 768 765 760 757 756 756 756 757 757 757 756 756 757 756 755 755 754 753
815 812 810 807 804 801 798 794 790 785 779 773 769 766 764 764 764 765 766 766 766 766 765 767 768 765 766 769 769 769 769 769 770 770 771 771 771 771 770 769 769 769 769 770 771 771 771 771 773 775 771 768 767 764 762 760 761 761 761 762 763 763 757 756 762 762 760 764 765 765 764 761 758 756 754 752 752 754 753 753 753 754 755 755 755 755 754 754
815 812 810 806 804 801 798 794 791 787 782 775 769 765 768 772 768 765 768 768 768 770 769 770 771 768 769 770 769 770 769 770 770 770 771 771 771 771 770 770 769 771 771 770 773 771 769 773 774 770 763 758 759 757 757 758 760 762 763 764 764 764 762 758 759 760 760 765 764 762 761 760 758 755 753 751 750 750 752 752 752 752 753 753 754 754 753 752
815 812 809 806 803 801 797 795 791 788 786 781 774 772 783 789 782 779 782 775 769 771 771 771 772 771 771 771 771 771 770 770 770 769 771 771 771 772 771 771 772 774 771 767 771 770 772 776 768 760 756 754 756 756 757 759 761 763 765 765 764 763 762 757 755 759 762 766 765 762 762 761 758 756 752 751 751 750 750 751 751 750 750 750 751 752 751 750
815 812 809 806 803 800 797 794 792 790 789 785 781 783 793 796 793 794 794 784 773 771 771 771 771 771 771 772 772 771 771 771 771 771 771 771 772 773 771 771 772 771 768 767 771 774 777 774 762 755 754 754 758 758 761 763 763 765 766 767 767 762 759 756 758 763 763 768 769 764 764 761 755 754 751 750 750 747 746 746 747 747 747 748 748 749 749 749
815 812 809 806 803 799 796 794 793 792 791 789 788 792 795 796 796 795 795 791 779 770 769 771 771 770 771 772 771 772 772 769 770 771 772 773 772 772 772 772 770 767 768 770 770 773 773 766 758 756 755 756 760 761 764 766 766 767 766 768 767 760 759 760 764 769 766 769 770 767 769 762 755 753 748 746 744 742 743 743 743 745 745 746 746 746 747 747
815 812 810 806 803 799 795 794 793 792 792 792 793 796 797 796 796 795 795 789 777 770 769 769 770 769 771 772 771 772 771 768 770 772 772 773 772 772 771 770 768 767 769 767 766 766 762 757 756 757 757 759 762 764 766 768 768 766 763 765 763 758 759 761 765 769 768 768 768 771 775 761 750 750 745 742 742 740 742 742 742 743 743 744 745 745 745 745
815 812 810 807 804 800 795 793 794 793 793 794 795 797 797 796 795 795 795 785 773 770 771 769 769 770 771 772 772 772 771 771 772 773 773 773 773 772 770 768 769 767 764 763 766 766 760 756 756 757 759 760 762 765 765 766 767 763 760 759 758 758 760 763 766 769 773 773 766 771 778 758 740 743 744 742 742 740 739 740 741 742 742 743 744 744 744 743
815 812 810 807 804 800 795 794 796 794 793 794 796 797 796 796 795 795 796 783 768 766 770 770 769 770 771 771 772 771 770 773 775 773 774 774 774 773 772 768 767 767 765 763 765 763 759 758 758 759 761 760 763 765 760 761 765 764 761 757 756 759 764 767 769 773 778 775 765 768 780 769 748 742 743 743 742 740 739 738 738 739 740 741 742 742 742 741
815 812 810 808 805 801 798 798 798 795 795 797 796 796 796 795 795 796 791 772 758 761 767 769 769 771 771 770 772 772 771 773 775 775 774 775 774 774 774 769 765 768 766 765 766 762 759 761 762 763 762 762 765 763 757 756 762 765 763 760 759 761 767 770 771 777 777 772 770 769 776 781 763 742 739 740 740 741 741 740 737 736 737 737 737 738 739 740
814 812 810 808 805 803 802 801 800 798 799 799 796 797 796 794 795 796 785 764 755 759 763 767 771 770 770 771 771 771 772 773 775 776 775 775 775 774 775 770 768 770 768 768 769 763 761 763 763 762 762 762 761 757 753 753 759 765 765 764 763 765 770 771 774 779 775 777 785 774 770 783 768 741 737 738 738 742 742 740 738 735 735 734 734 735 735 736
814 812 810 808 805 803 803 802 801 800 800 798 797 796 794 795 795 791 782 767 758 760 762 767 772 771 770 771 771 771 771 772 775 776 775 775 775 775 776 772 770 772 770 769 768 764 762 763 764 763 763 761 757 754 754 754 758 765 767 766 768 772 774 774 779 782 780 787 792 775 768 781 766 741 740 741 740 743 739 736 736 733 732 732 732 733 732 732
814 812 809 807 804 803 802 801 802 801 799 798 797 796 794 796 791 782 777 766 756 761 766 768 773 772 769 769 770 771 772 774 776 776 776 775 775 776 775 774 775 775 773 773 772 767 763 764 766 766 763 759 758 758 758 758 760 764 769 769 772 775 774 777 777 777 789 796 785 770 768 779 772 749 741 740 737 738 736 734 733 730 729 730 729 730 730 730
814 812 809 807 805 804 803 802 801 800 799 798 795 795 795 793 786 777 772 762 757 765 770 773 777 775 775 776 774 773 774 775 777 777 777 776 777 778 776 775 776 775 774 773 771 767 766 770 769 765 763 760 762 765 762 761 762 765 770 773 779 780 775 781 781 782 800 796 771 764 767 777 779 756 739 737 732 731 733 732 730 729 728 728 728 728 728 729
813 811 809 808 806 806 805 803 802 800 799 797 795 796 793 788 783 774 763 754 758 770 775 779 782 780 783 783 778 779 780 777 776 776 776 775 775 775 773 772 772 774 773 766 765 766 765 766 766 763 762 761 765 769 768 766 766 770 774 779 791 793 788 792 788 785 794 782 761 760 765 774 776 755 738 736 731 729 731 729 729 730 730 730 730 730 729 730
812 810 809 808 806 806 806 804 803 800 798 797 796 795 792 789 782 768 757 755 765 778 781 782 783 784 785 779 775 781 781 776 775 774 773 773 774 772 769 768 770 776 775 769 773 775 766 759 760 764 764 761 764 769 771 769 768 773 775 780 792 798 801 802 790 782 781 769 757 757 764 771 762 743 734 732 731 730 729 729 730 731 732 732 731 731 731 730
811 809 808 808 807 807 806 805 803 800 798 797 795 794 795 793 780 764 764 773 779 781 782 784 784 785 783 778 779 781 776 776 777 775 774 775 776 775 770 768 770 774 776 780 780 778 776 769 763 766 767 763 763 765 765 763 766 770 767 772 782 781 785 785 777 775 771 760 752 756 773 776 754 736 728 725 726 728 727 729 730 730 731 731 731 731 731 731
810 809 808 808 808 807 806 805 803 800 799 797 795 795 795 789 775 770 779 787 786 783 785 786 784 785 782 780 786 784 776 778 780 778 778 778 778 776 772 775 778 777 779 785 780 774 779 775 767 769 769 766 769 766 763 765 769 765 760 769 776 767 767 769 765 763 764 767 762 757 766 761 740 728 722 722 725 725 727 727 727 731 730 730 733 735 736 736
810 809 808 808 808 807 806 804 802 800 799 798 797 795 790 785 782 785 791 792 791 792 792 785 781 785 781 777 787 788 780 781 783 784 782 778 778 776 779 788 789 787 788 788 785 781 781 776 773 778 773 769 775 772 769 774 775 771 769 772 769 761 763 773 773 764 766 780 772 754 753 746 736 731 722 723 726 724 731 734 735 741 740 740 745 747 748 747
810 809 808 808 807 806 806 804 802 801 799 800 801 793 786 789 793 795 795 796 796 796 796 790 782 782 779 775 784 790 786 783 784 789 786 780 780 779 785 796 796 796 799 797 792 790 791 786 780 783 781 775 775 773 773 774 776 782 783 774 768 765 765 773 781 774 774 782 767 749 751 749 746 741 725 724 731 734 744 748 748 752 752 754 758 757 756 754
811 809 807 807 807 806 805 803 802 801 799 801 801 790 789 797 798 798 799 799 798 796 798 797 786 781 781 782 788 792 792 789 787 792 790 784 784 785 790 800 802 801 801 801 797 795 802 802 788 781 783 780 776 779 781 773 771 779 779 774 777 781 776 773 778 777 777 780 766 752 752 749 747 743 732 736 746 751 757 757 757 760 762 764 765 762 762 760
811 809 807 807 807 806 804 803 802 800 800 803 797 791 799 804 799 800 803 800 800 800 799 796 790 787 787 790 797 798 797 797 795 798 796 788 788 796 802 804 805 806 803 802 803 801 805 811 801 787 783 786 785 788 790 784 775 773 774 775 778 784 784 778 776 776 776 775 766 758 757 750 746 746 746 753 761 764 767 766 768 771 772 773 772 770 769 766
813 810 808 807 808 806 804 803 802 801 801 801 796 798 807 807 801 802 802 801 804 803 801 799 799 799 797 798 802 800 799 802 803 804 804 796 794 806 816 814 810 811 807 804 807 809 809 811 809 797 790 796 795 789 791 795 791 787 787 786 783 787 791 786 783 780 781 783 775 768 765 755 751 754 755 761 770 774 775 775 776 778 779 779 779 779 778 775
814 812 809 808 808 805 803 802 801 800 800 798 801 807 810 808 808 806 803 804 806 805 804 806 807 807 807 807 806 803 804 806 806 808 809 805 803 810 821 822 818 816 813 809 812 818 818 815 815 809 803 803 797 788 791 798 799 800 803 803 802 804 803 803 799 783 777 785 779 773 774 763 757 760 761 767 776 778 780 782 783 783 784 785 785 786 787 786
815 813 809 809 808 805 805 802 799 800 802 803 809 813 811 809 812 810 808 809 809 807 807 808 812 813 812 813 812 811 813 812 810 811 810 810 813 818 823 823 820 819 818 819 820 823 825 826 826 820 811 806 799 793 796 799 799 802 805 804 806 809 809 816 817 795 784 788 780 779 784 770 759 763 767 773 779 780 784 787 789 790 789 790 791 792 793 792
818 816 811 810 809 807 807 803 799 802 807 812 814 813 812 812 814 814 814 814 812 812 812 812 815 816 816 817 818 818 821 821 817 814 811 813 820 824 823 822 821 819 820 825 827 825 827 832 836 830 818 810 807 801 798 798 800 803 805 804 808 815 816 818 817 806 804 806 797 797 793 770 758 762 767 775 780 783 789 792 795 798 796 796 797 797 798 798
820 817 812 811 810 809 809 807 806 806 808 814 817 816 816 816 816 817 818 818 816 816 820 819 817 818 820 821 822 823 825 827 825 819 816 820 824 824 822 821 823 822 824 830 830 830 835 839 843 843 830 818 815 810 806 808 810 812 815 816 817 822 824 824 819 814 814 809 802 807 802 776 761 760 764 776 784 788 794 798 800 803 803 803 803 802 803 803
820 815 811 812 811 811 812 813 815 814 812 817 822 821 822 820 817 818 819 819 818 818 822 821 817 819 821 821 825 826 826 829 829 825 823 823 822 824 824 823 824 825 827 828 826 832 841 840 840 844 837 826 823 821 819 825 827 825 825 824 823 823 826 829 829 826 821 806 795 801 801 784 772 768 770 781 790 794 799 802 804 807 809 810 808 808 808 807
822 819 815 813 812 813 814 815 817 818 819 825 826 824 826 826 822 819 820 822 819 818 820 819 817 820 822 823 828 829 828 829 829 827 827 824 821 824 826 825 826 826 826 826 824 830 839 837 834 840 840 833 831 827 824 829 833 832 830 827 825 825 825 828 833 835 828 817 808 804 800 796 792 783 782 790 796 801 805 807 809 811 811 812 813 813 812 812
823 824 822 820 818 816 816 818 821 822 825 829 830 827 829 830 826 823 822 822 821 821 822 820 819 822 824 826 831 832 830 829 829 828 828 825 823 826 828 827 828 826 824 825 826 831 840 840 834 836 838 834 833 831 829 831 835 835 834 831 827 826 826 829 834 833 827 825 824 813 806 810 807 794 793 802 805 807 811 813 815 816 816 816 816 816 815 815
822 823 824 825 824 820 819 823 826 827 828 829 829 828 829 829 829 827 824 821 820 823 825 823 822 825 826 827 831 834 832 832 833 829 826 827 827 827 829 829 827 826 825 827 828 830 839 842 835 836 839 835 833 834 833 834 835 834 834 833 829 827 826 828 829 826 825 827 825 815 812 816 810 800 804 813 815 815 817 818 820 821 821 821 820 820 820 819
824 824 823 825 826 825 824 824 826 827 828 828 827 826 827 828 827 824 821 821 822 823 827 829 827 825 825 825 829 833 832 833 834 829 827 830 829 830 833 831 828 826 826 830 829 827 836 842 834 833 839 836 833 834 833 834 835 834 834 833 831 828 826 825 823 822 823 823 820 817 818 816 809 806 813 820 821 822 823 823 824 825 825 825 826 826 826 825
827 827 827 827 828 826 825 825 826 827 826 826 826 824 823 825 824 822 821 824 827 824 825 829 828 824 825 826 828 831 828 828 831 829 829 834 833 833 835 833 830 828 828 832 830 827 837 841 831 831 840 837 832 832 831 831 831 832 832 829 827 828 826 824 823 821 821 819 817 816 815 811 810 815 822 827 827 827 829 829 829 830 830 830 832 832 832 832
828 828 828 830 829 825 824 824 825 827 825 824 824 822 821 823 823 823 823 822 824 824 824 827 829 827 828 828 829 830 826 825 829 828 828 832 833 832 834 833 833 833 833 833 831 830 835 836 833 837 840 836 832 831 830 829 830 832 833 830 827 828 826 824 822 819 818 817 814 813 815 818 824 829 831 832 833 834 836 836 836 836 835 835 836 837 837 837
828 828 828 830 829 824 824 824 824 825 824 821 821 821 823 823 822 824 826 822 822 826 826 826 828 829 829 829 829 829 827 827 830 830 829 831 832 831 833 833 832 835 836 834 834 835 835 837 840 840 837 835 832 831 833 834 831 831 831 828 826 825 824 821 818 816 817 819 818 820 827 835 839 840 839 839 840 839 839 841 842 842 841 840 840 840 840 840